STARLINK-35817

Last updated on Sun Dec 07 2025 00:02:05 GMT+0000 (Coordinated Universal Time)

1 66357U 25254K 25340.58335648 -.00119364 00000+0 -21676-2 0 9990 2 66357 53.1601 306.0024 0001055 80.7540 346.8000 15.49354123 5930
UTC large
Height (km)
Speed (km/s)
/
Latitude / Longitude
Inclination (degrees)
Orbital Period (minutes)
Azimuth
Elevation
Range (km)
Doppler Factor

Next 0 passes for location: London (51.5072 / 0.1276)

Sorry there are no passes over London.